sat.trackr.live / text

‹ back to catalog

ET-001C

NORAD 69942 · 2026-156CB

PAYLOAD ACTIVE UNKNOWN

§ Identity

Operator
Country
US
Launch date
2026-07-07
Launch site
AFWTR
Launch vehicle
Mass (kg)
RCS (m²)

External: N2YO · Heavens-Above · Gunter

§ Orbital elements

Epoch: 2026-09-19T23:17:52.487232Z

Period
96.48 min
Inclination
97.7413°
Eccentricity
0.0006716
Mean motion
14.92500589 rev/d
Perigee alt
585.5 km
Apogee alt
594.8 km
Semi-major
6,968.3 km
B*
1.5624e-4
RAAN
162.2101°
Arg perigee
265.7579°
Mean anomaly
94.2873°
Rev number
1,113

§ Raw data

ET-001C1 69942U 26156CB  26262.97074638  .00001548  00000+0  15624-3 0  99902 69942  97.7413 162.2101 0006716 265.7579  94.2873 14.92500589 11139

JSON: /api/v1/satellites/69942 · /tle

For live sub-satellite position, see the globe view (requires WebGL).

§ Visibility from observer

Set your observer location to see the next 7 days of passes ≥ 10°. The values pass through the URL so the page stays shareable.

No JS? Fill the form by hand. The geolocation button needs JavaScript.